Location: Buchberg
(46.9333°N, 15.8500°E)
Time: 09:45:00
(UTC+00:00)

Cosmos 1869 Rocket - Pass Details

Date: 14 July 2020
Orbit: 606 x 632 km, 82.5° (Epoch: 07 August)

Event Time Altitude Azimuth Distance (km) Brightness Sun altitude
Exits shadow 00:27:34 36° 163° (SSE) 970 4.1 -18.8°
Maximum altitude 00:29:10 63° 96° (E) 680 3.7 -18.7°
Drops below altitude 10° 00:33:29 10° 15° (NNE) 1,971 7.4 -18.4°
Sets 00:35:43 0° 13° (NNE) 2,884 8.6 -18.3°
